Location: Leeds
(37.2390°N, 113.3580°W)
Time: 09:32:00
(UTC-06:00)

SL-08 RB Rocket - Visible Passes

Search period start: 21 April 2014 00:00
Search period end: 01 May 2014 00:00
Orbit: 650 x 689 km, 98.1° (Epoch: 20 April)

Date Brightness Start Highest point End Pass type
(mag) Time Alt. Az. Time Alt. Az. Time Alt. Az.
21 Apr 5.6 21:59:17 15° ENE 21:59:17 15° ENE 22:01:21 10° NNE visible
21 Apr 5.6 23:37:29 27° NW 23:37:29 27° NW 23:39:45 10° NNW visible
22 Apr 5.0 22:32:15 29° NE 22:32:15 29° NE 22:35:09 10° N visible
23 Apr 6.4 00:10:27 15° WNW 00:10:27 15° WNW 00:11:34 10° NW visible
23 Apr 4.7 23:05:13 41° N 23:05:13 41° N 23:08:10 10° N visible
24 Apr 5.6 21:59:58 16° ENE 21:59:58 16° ENE 22:02:20 10° NNE visible
24 Apr 5.5 23:38:10 29° NW 23:38:10 29° NW 23:40:40 10° NNW visible
25 Apr 4.8 22:32:56 31° NE 22:32:56 31° NE 22:36:05 10° N visible
26 Apr 6.3 00:11:08 15° WNW 00:11:08 15° WNW 00:12:27 10° NW visible
26 Apr 4.5 23:05:53 46° N 23:05:53 46° N 23:09:05 10° N visible
27 Apr 5.5 22:00:39 16° ENE 22:00:39 16° ENE 22:03:18 10° NNE visible
27 Apr 5.3 23:38:50 31° NW 23:38:50 31° NW 23:41:34 10° NNW visible
28 Apr 4.7 22:33:36 33° NE 22:33:36 33° NE 22:37:01 10° N visible
29 Apr 6.2 00:11:48 16° WNW 00:11:48 16° WNW 00:13:19 10° NW visible
29 Apr 4.3 23:06:33 52° N 23:06:33 52° N 23:10:00 10° N visible
30 Apr 5.5 22:01:18 16° ENE 22:01:27 17° ENE 22:04:15 10° NNE visible
30 Apr 5.2 23:39:30 33° WNW 23:39:30 33° WNW 23:42:27 10° NNW visible
